Weather History for Big Piney, WY

Change the Weather History Date:

Wednesday, June 26, 2013

  Actual Average Record
Temperature  
Mean Temperature 65 °F 58 °F  
Max Temperature 83 °F 76 °F 91 °F (2002)
Min Temperature 46 °F 40 °F 26 °F (1976)
Degree Days  
Heating Degree Days 0 7  
Month to date heating degree days 217 278  
Since 1 June heating degree days 217 278  
Since 1 July heating degree days 9632 10404  
Cooling Degree Days 0 0  
Month to date cooling degree days 3 0  
Year to date cooling degree days 3 0  
Since 1 June cooling degree days 3 0  
Growing Degree Days 14 (Base 50)    
Moisture  
Dew Point 37 °F    
Average Humidity 46    
Maximum Humidity 71    
Minimum Humidity 20    
Precipitation  
Precipitation 0.00 in 0.02 in 0.34 in (2009)
Month to date precipitation T 0.71  
Year to date precipitation 1.70 3.18  
Sea Level Pressure  
Sea Level Pressure 29.97 in    
Wind  
Wind Speed 10 mph (NW)    
Max Wind Speed 29 mph    
Max Gust Speed 37 mph    
Visibility 10 miles    
Events      
T = Trace of Precipitation, MM = Missing Value Source: NWS Daily Summary

Daily Weather History Graph

Daily Weather History Graph

Search for Another Location

Airport:

Trip Planner

Search our weather history database for the weather conditions in past years. The results will help you decide how hot, cold, wet, or windy it might be!

Date:

Astronomy

Jun. 26, 2013 Rise Set
Actual Time 5:44 AM MDT 9:02 PM MDT
Civil Twilight 5:09 AM MDT 9:37 PM MDT
Nautical Twilight 4:24 AM MDT 10:22 PM MDT
Astronomical Twilight 3:28 AM MDT 11:17 PM MDT
Moon 11:21 PM MDT (6/26) 9:45 AM MDT (6/26)
Length of Visible Light 16h 27m
Length of Day
15h 17m
Waning Gibbous, 85% of the Moon is Illuminated
Jun 26
Waning Gibbous
Jun 29
Last Quarter
Jul 8
New
Jul 15
First Quarter
Jul 22
Full

Hourly Weather History & Observations

Time (MDT) Temp. Windchill Dew Point Humidity Pressure Visibility Wind Dir Wind Speed Gust Speed Precip Events Conditions
12:53 AM 46.0 °F 43.9 °F 32.0 °F 58% 29.94 in 10.0 mi North 4.6 mph - N/A   Mostly Cloudy
1:53 AM 48.9 °F - 34.0 °F 56% 29.93 in 10.0 mi North 6.9 mph - N/A   Overcast
2:53 AM 52.0 °F - 34.0 °F 50% 29.91 in 10.0 mi East 4.6 mph - N/A   Mostly Cloudy
3:53 AM 48.9 °F - 35.1 °F 59% 29.91 in 10.0 mi SW 3.5 mph - N/A   Overcast
4:53 AM 48.9 °F - 39.9 °F 71% 29.93 in 10.0 mi Calm Calm - N/A   Mostly Cloudy
5:53 AM 46.9 °F - 37.9 °F 71% 29.96 in 10.0 mi Calm Calm - N/A   Mostly Cloudy
6:53 AM 52.0 °F - 37.0 °F 57% 29.95 in 10.0 mi Calm Calm - N/A   Clear
7:53 AM 57.9 °F - 37.9 °F 47% 29.95 in 10.0 mi Calm Calm - N/A   Clear
8:53 AM 64.0 °F - 39.0 °F 40% 29.97 in 10.0 mi East 4.6 mph - N/A   Clear
9:53 AM 71.1 °F - 37.9 °F 30% 29.97 in 10.0 mi North 5.8 mph - N/A   Clear
10:53 AM 75.0 °F - 41.0 °F 29% 29.95 in 10.0 mi ESE 8.1 mph - N/A   Partly Cloudy
11:53 AM 75.9 °F - 39.0 °F 26% 29.98 in 10.0 mi Variable 3.5 mph - N/A   Scattered Clouds
12:53 PM 82.0 °F - 37.0 °F 20% 29.97 in 10.0 mi WNW 17.3 mph 27.6 mph N/A   Partly Cloudy
1:53 PM 81.0 °F - 39.0 °F 22% 29.98 in 10.0 mi West 21.9 mph 33.4 mph N/A   Partly Cloudy
2:53 PM 82.9 °F - 37.9 °F 20% 29.96 in 10.0 mi West 24.2 mph 34.5 mph N/A   Clear
3:53 PM 82.0 °F - 37.0 °F 20% 29.96 in 10.0 mi West 19.6 mph 36.8 mph N/A   Clear
4:53 PM 82.0 °F - 37.9 °F 21% 29.96 in 10.0 mi WNW 20.7 mph 27.6 mph N/A   Clear
5:53 PM 81.0 °F - 36.0 °F 20% 29.98 in 10.0 mi West 19.6 mph 27.6 mph N/A   Clear
6:53 PM 78.1 °F - 35.1 °F 21% 29.98 in 10.0 mi West 17.3 mph - N/A   Clear
7:53 PM 73.9 °F - 39.0 °F 28% 29.98 in 10.0 mi West 15.0 mph - N/A   Clear
8:53 PM 66.9 °F - 39.0 °F 36% 30.00 in 10.0 mi WNW 12.7 mph - N/A   Clear
9:53 PM 63.0 °F - 37.9 °F 40% 30.02 in 10.0 mi NW 11.5 mph - N/A   Clear
10:53 PM 57.0 °F - 37.9 °F 49% 30.04 in 10.0 mi NNW 10.4 mph - N/A   Clear
11:53 PM 55.9 °F - 37.9 °F 51% 30.06 in 10.0 mi ENE 8.1 mph - N/A   Clear